Location: A�t Oumchat
(32.6000°N, 5.2500°W)
Time: 19:47:41
(UTC+00:00)

Daily predictions for brighter satellites

Satellite Brightness Start Highest point End
(mag) Time Altitude Azimuth Time Altitude Azimuth Time Altitude Azimuth
NOSS 3-2 (A) 4.3 18:23:05 10° NNW 18:31:03 88° ENE 18:39:46 10° SSE
Cosmos 1340 Rocket 4.2 18:30:01 10° SE 18:32:45 18° E 18:35:31 10° NE
Cosmos 1833 Rocket 4.4 18:30:40 10° NNE 18:33:19 13° NE 18:35:56 10° E
Nadezhda 4 Rocket 4.3 18:29:52 10° N 18:35:43 44° E 18:41:33 10° SSE
YAOGAN 1 3.3 18:34:24 10° SE 18:38:14 32° ENE 18:42:04 10° N
CREW DRAGON DEMO-1 DEB 2.8 18:35:30 10° NW 18:38:28 59° NE 18:41:27 10° SE
COSMOS 2406 4.5 18:35:45 10° NNE 18:39:58 21° ENE 18:44:10 10° ESE
CZ-4C R/B 2.5 18:39:39 10° S 18:43:48 33° ESE 18:48:26 10° NE
SL-24 R/B 4.3 18:39:32 10° SSE 18:44:00 85° E 18:48:59 10° N
Exosat Rocket 4.1 18:40:46 10° SSW 18:46:22 64° WNW 18:51:18 10° NNE
CZ-2C R/B 4.0 18:46:30 10° SW 18:47:40 11° SW 18:48:50 10° SSW
Cosmos 1674 3.1 18:44:04 10° N 18:47:41 39° E 18:51:14 10° SSE
Cosmos 494 Rocket 4.0 18:43:25 10° N 18:48:40 67° ENE 18:53:52 10° SSE
Helios 1A Rocket 2.9 18:44:50 10° SSE 18:48:56 84° ENE 18:53:05 10° N
CZ-4 R/B 1.5 18:47:07 10° SSE 18:51:13 56° ENE 18:55:16 10° N
SeaSat 1 3.9 18:47:01 10° S 18:51:37 40° WSW 18:56:15 10° NW
Meteor 1-15 Rocket 4.3 18:46:16 10° S 18:51:55 88° E 18:57:43 10° N
Cosmos 1536 Rocket 3.5 18:49:23 10° N 18:53:52 79° E 18:58:19 10° S
ARGOS 4.2 18:51:19 10° ESE 18:55:30 24° ENE 18:59:42 10° NNE
APEX 3.4 18:55:47 10° S 18:58:25 31° ESE 19:01:30 10° NE
Cosmos 2034 Rocket 4.3 18:53:42 10° S 19:00:02 75° W 19:06:22 10° N
Meteor 1-22 Rocket 4.5 18:56:53 10° SSE 19:02:35 52° E 19:08:27 10° NNE
Aureole 2 Rocket 3.1 19:00:57 10° SSW 19:04:11 53° WNW 19:07:25 10° N
Meteor 1-24 Rocket 4.4 18:59:49 10° NNE 19:05:00 33° ENE 19:10:16 10° SE
MOS 1 Rocket 3.2 19:02:15 10° NNE 19:06:25 50° E 19:10:37 10° S
CZ-2C R/B 3.6 19:02:08 10° NE 19:06:42 25° E 19:11:13 10° SSE
Cosmos 1766 3.2 19:03:35 10° S 19:07:30 85° E 19:11:28 10° N
Cosmos 1626 3.1 19:04:43 10° NNE 19:07:52 26° E 19:08:29 25° E
CENTAUR R/B 3.3 19:02:08 10° NNW 19:10:38 86° WSW 19:19:31 10° SSE
Abrixas rocket 2.1 19:08:49 10° WNW 19:11:37 61° SW 19:12:59 26° SSE
Centaur AC-119 4.2 19:10:55 10° SSW 19:11:40 10° S 19:12:20 10° SSE
Cosmos 1733 3.1 19:09:12 10° S 19:13:01 90° ENE 19:16:50 10° N
NOSS 3-2 (C) 4.3 19:05:29 10° NNW 19:13:29 80° WSW 19:22:12 10° SSE
SL-14 R/B 4.1 19:10:30 10° NNE 19:14:00 29° E 19:14:30 28° E
USA 116 4.5 19:13:34 10° N 19:17:48 66° WNW 19:22:32 10° SSW
Palapa 6 Rocket 4.5 19:16:00 10° SW 19:19:02 20° S 19:20:27 16° SSE
RESURS DK-1 2.5 19:15:06 10° SSW 19:19:12 78° WNW 19:23:22 10° NNE
Cosmos 1634 Rocket 3.9 19:15:42 10° S 19:21:47 70° E 19:27:58 10° N
Milstar 3 Cent rocket 3.1 19:11:22 10° W 19:22:00 65° S 19:25:27 27° ESE
Meteor 2-5 Rocket 3.7 19:21:27 10° N 19:27:14 72° E 19:33:06 10° SSE
ATLAS 3B R/B 3.2 19:22:20 10° NNW 19:28:54 42° NE 19:31:52 29° ESE
X-37B 0.6 19:26:27 10° SW 19:29:30 61° SSE 19:29:30 61° SSE
SJ-11-01 4.2 19:28:30 10° SSE 19:33:12 83° ENE 19:37:54 10° N
Cosmos 1269 Rocket 4.0 19:30:57 10° NNW 19:36:16 82° WSW 19:41:33 10° SSE
Okean-O 4.3 19:32:36 10° SSW 19:36:37 34° W 19:40:40 10° NNW
Cosmos 2195 Rocket 4.3 19:31:26 10° N 19:37:37 79° E 19:43:43 10° S
Cosmos 2026 Rocket 3.9 19:32:51 10° N 19:39:13 69° E 19:45:30 10° SSE
Cosmos 2082 Rocket 3.2 19:35:13 10° N 19:39:29 27° NE 19:39:29 27° NE
CZ-2C R/B 3.6 19:36:13 10° S 19:41:34 65° W 19:47:12 10° NNW
COSMOS 2455 2.9 19:36:43 10° SSW 19:42:43 79° WNW 19:48:46 10° NNE
H-2A R/B 2.0 19:38:03 10° SSE 19:43:03 85° WSW 19:48:14 10° NNW
Cosmos 1455 Rocket 2.9 19:39:20 10° S 19:43:40 64° E 19:47:59 10° NNE
Cosmos 1428 Rocket 4.3 19:37:41 10° N 19:43:53 71° E 19:49:58 10° SSE
Cosmos 1092 Rocket 4.1 19:40:57 10° N 19:47:08 75° W 19:53:22 10° S
Cosmos 2279 Rocket 3.8 19:44:16 10° S 19:50:28 73° E 19:56:43 10° N
Cosmos 1627 Rocket 4.5 19:44:06 10° N 19:50:31 90° W 19:56:50 10° S
Intelsat 5-1 Rocket 4.4 19:32:07 10° WSW 19:55:38 52° S 19:59:27 36° SE
Cosmos 2180 Rocket 4.4 19:55:43 10° S 20:01:55 70° E 20:08:15 10° N
Cosmos 2278 Rocket 3.9 19:57:31 10° SW 20:02:31 31° WNW 20:07:31 10° N
DMSP B5D2-2 3.9 19:58:35 10° NNE 20:03:52 76° ESE 20:09:06 10° S
Cosmos 2297 4.1 19:58:32 10° S 20:02:35 45° SSE 20:02:35 45° SSE
Centaur D-1AR AC-40 3.9 20:10:00 10° W 20:17:04 22° SSW 20:18:14 20° SSW
Cosmos 1833 Rocket 2.7 20:12:09 10° NNW 20:17:47 74° WSW 20:18:21 68° SSW
Cosmos 2251 Rocket 4.4 20:12:41 10° N 20:16:08 39° N 20:16:08 39° N
Lacrosse 4 Rocket 3.3 20:19:54 10° NNW 20:21:36 24° NNW 20:21:36 24° NNW
COSMOS 2406 4.1 20:19:03 10° NW 20:24:26 45° WSW 20:26:32 32° SSW
Lacrosse 5 rocket 4.0 20:21:37 10° NNW 20:22:36 15° N 20:22:36 15° N
BREEZE-M R/B 4.4 20:25:52 10° SW 20:28:14 41° WSW 20:28:14 41° WSW
CZ-4C R/B 4.1 20:28:21 10° WSW 20:32:17 24° NW 20:36:43 10° N
Ariane Rocket 4.3 20:46:27 36° NW 20:46:27 36° NW 20:49:47 10° NNW
CZ-2C R/B 4.1 20:41:52 10° N 20:46:56 36° WNW 20:51:58 10° SW
ATLAS 3B R/B 4.0 21:13:15 10° NW 21:19:11 34° WSW 21:19:11 34° WSW
Cosmos 2082 Rocket 4.3 21:19:00 10° NW 21:21:21 22° WNW 21:21:21 22° WNW
